Accueil
METAR-TAF:

METAR-TAF

Aéroports :

NWS Office

Ponape, Micronésie

latitude: 06-58N, longitude: 158-13E, altitude: 39 m

Observation

Le bulletin a été fait il y a 53 minutes, à 21:50 UTC
Vent 3 kt de est/nord-est
Température 30°C
Humidité 75%
Pression 1011 hPa
Visibilité: 24.1 km
Nuages épars à une hauteur de 1800 ft
Ciel couvert à une hauteur de 30000 ft

METAR: PTTP 232150Z 07003KT 15SM SCT018 OVC300 30/25 A2985 RMK SLP107 T02960252

Heure: 09:43 (22:43 UTC)


TAF: absent

Observations et prévisions météorologiques de plus de 4000 aéroports (messages METAR et TAF).

Les stations disponibles sont représentées par des disques jaunes et rouges sur la carte.

Passer la souris dessus pour voir le nom de la station.

Cliquer dessus pour voir les observations et prévisions météorologiques.

Pour changer de carte: cliquez sur les boutons verts avec une croix noire pour zoomer, sur le bouton vert avec un tiret pour effectuer un zoom arrière, ou sur les flèches vertes pour les cartes adjacentes.


METAR-TAF: